Lid_Strength_Index
0 0 1 1 0 1 1 1 3 5 4 2 2 -0 -0 -1 -1 -2 -2 -1 -0 1 2 1 1 1 0 0 0 0 0 0 0 0 0 0 -0 -1
0 0 1 1 1 1 1 1 1 3 5 2 2 0 -1 -1 -1 -2 -1 0 0 1 1 2 2 2 1 1 1 1 1 1 1 1 1 1 1 1
0 1 1 0 1 1 1 1 1 2 3 2 1 0 -0 -0 -1 -1 -1 -1 -1 2 2 2 2 2 2 2 1 1 1 1 1 2 2 2 1 1
1 1 1 1 1 0 1 1 1 1 2 3 1 1 0 -1 -1 -1 -0 -1 -1 1 2 2 2 3 2 2 2 1 2 2 3 3 3 3 2 1
1 1 1 1 1 1 1 1 1 1 1 2 2 1 0 -0 0 -0 -0 -1 -1 0 2 2 2 2 3 3 3 4 4 5 5 5 4 4 3 2
0 0 1 1 1 1 1 1 0 1 1 2 2 2 1 0 1 1 2 0 0 -0 -0 0 1 2 2 3 3 4 5 6 6 6 6 6 5 4
0 0 0 1 2 1 1 1 1 2 2 2 2 2 2 2 2 1 2 1 0 -0 0 -0 -0 -0 -1 2 0 2 4 5 5 6 6 6 6 6
1 1 0 1 2 4 3 3 1 2 2 2 2 3 2 1 1 2 2 2 3 -0 0 1 -0 0 -0 -1 1 2 4 4 5 5 5 6 6 6
1 1 1 1 2 0 3 4 3 4 2 1 2 2 2 1 1 1 1 1 2 0 0 2 -0 1 -0 -1 1 2 4 4 5 5 5 5 6 6
1 1 1 1 1 1 1 1 1 1 0 0 0 0 0 -0 -0 0 0 0 0 0 -1 3 0 1 -0 -1 2 3 4 5 4 5 5 6 6 7
1 0 1 1 3 5 1 1 2 1 3 4 3 5 5 5 2 0 2 3 3 2 0 1 1 1 0 0 -1 4 5 5 5 5 5 7 7 8
1 1 5 1 6 7 1 1 2 2 1 1 1 2 3 1 4 -0 1 2 3 3 1 2 2 1 2 0 -0 0 0 7 7 6 7 8 9 1
2 1 1 8 8 9 7 1 2 1 2 1 1 1 1 1 0 0 -0 1 2 2 0 0 1 2 2 2 0 -0 -0 2 1 3 9 9 9 5
2 1 2 9 10 10 7 8 8 6 1 2 2 2 1 1 1 0 -0 -0 -1 0 -1 -1 1 1 2 3 3 1 0 -0 -0 0 -0 4 9 8
1 3 8 10 10 8 9 8 7 2 2 2 3 2 1 1 0 1 0 -1 -1 -1 -1 -1 0 1 1 2 3 2 1 0 -0 0 -0 0 0 1
4 5 6 6 7 6 6 6 3 1 2 2 2 1 1 1 2 1 2 1 1 1 -1 -1 -0 0 2 1 2 2 1 2 0 0 0 -0 -0 -0
5 3 3 3 3 2 1 1 1 1 1 1 1 2 2 1 2 1 1 2 3 3 2 1 -1 -1 0 1 3 2 2 1 1 1 1 1 0 -0
3 2 3 3 4 4 4 4 3 4 2 1 1 1 2 2 2 1 1 2 3 2 2 1 1 1 1 1 4 2 2 2 1 0 0 2 2 0
2 2 2 2 2 1 2 2 2 1 0 1 1 1 1 1 2 2 2 2 2 2 2 1 1 2 4 5 4 8 4 2 1 2 1 2 2 1
1 2 2 1 1 2 2 2 1 1 1 1 1 1 1 2 2 2 2 2 2 2 2 1 2 2 3 4 4 6 10 6 5 4 3 2 1 4
1 1 1 1 1 1 1 1 1 1 1 1 1 1 1 1 2 2 2 5 4 2 3 2 1 4 0 1 3 3 5 8 7 6 3 3 3 3
1 1 1 1 1 1 1 1 1 1 1 1 1 0 0 1 2 2 2 2 2 2 2 1 0 1 2 3 4 5 6 5 6 7 7 7 4 4
1 1 1 1 0 0 0 0 0 1 0 0 0 1 1 1 0 1 1 1 2 2 2 2 2 2 2 2 4 4 5 4 4 4 4 7 6 6